Location: ????????
(38.4362°N, 22.8767°E)
Time: 15:01:22
(UTC+00:00)

Cosmos 1707 Rocket - Pass Details

Date: 23 April 2024
Orbit: 603 x 627 km, 82.5° (Epoch: 18 May)

Event Time Altitude Azimuth Distance (km) Brightness Sun altitude
Rises 03:06:21 0° 196° (SSW) 2,839 6.6 -7.3°
Reaches altitude 10° 03:08:35 10° 200° (SSW) 1,940 5.7 -6.9°
Maximum altitude 03:12:48 56° 279° (W) 720 3.6 -6.1°
Drops below altitude 10° 03:17:04 10° 358° (N) 1,961 6.4 -5.3°
Sets 03:19:20 0° 3° (N) 2,872 7.3 -4.9°
